SCP
0 0 -0 0 0 0 0 0 0 0 -0 -0 -0 0 0 0 0 0 0 0 -0 0 0 -0 0 0 0 0 0 0 0 0 0 0 0 0 0 0 0 0 0 0 0 0
0 0 0 0 0 0 0 0 0 0 0 -0 0 0 0 0 0 0 0 -0 -0 -0 -0 0 -0 -0 0 0 0 0 0 0 0 0 0 0 0 0 0 0 0 0 0 0
0 0 0 0 0 0 0 0 0 0 -0 0 0 0 0 0 0 0 0 0 -0 0 0 0 0 0 0 0 0 0 0 0 0 0 0 0 0 0 0 0 0 0 0 0
0 0 0 0 0 0 0 0 0 0 -0 -0 0 0 0 0 0 0 0 -0 -0 -0 0 0 0 0 0 0 0 0 0 0 0 0 0 0 0 0 0 0 0 0 0 0
0 0 0 0 0 0 0 0 0 0 0 0 0 0 0 0 0 0 0 0 0 0 0 0 0 0 0 0 0 0 0 0 0 0 0 0 0 0 0 0 0 0 0 0
0 0 0 0 0 0 0 0 0 1 1 0 0 1 0 0 0 0 0 0 0 0 0 0 0 0 0 0 0 0 0 0 0 0 0 0 0 0 0 0 0 0 0 0
0 0 0 0 0 0 0 0 0 0 0 0 0 0 0 0 0 0 0 0 0 0 0 0 0 0 0 0 0 0 0 0 0 0 0 0 0 0 0 0 0 0 0 0
0 0 0 0 0 0 0 0 0 0 0 0 0 0 0 0 0 0 0 0 0 0 0 0 0 0 0 0 0 0 0 0 0 0 0 0 0 0 0 0 0 0 0 0
0 0 0 0 0 0 0 0 0 0 0 0 0 0 0 0 0 0 0 0 0 0 0 0 0 0 0 0 0 0 0 0 0 0 0 0 0 0 0 0 0 0 0 0
0 0 0 0 0 0 0 0 0 0 0 0 0 0 0 0 0 0 0 0 0 0 0 0 0 0 0 0 0 0 0 0 0 0 0 0 0 0 0 0 0 0 0 0
0 0 0 0 0 0 0 0 0 0 0 0 0 0 0 0 0 0 0 0 0 0 0 0 0 0 0 0 0 0 0 0 0 0 0 0 0 0 0 0 0 0 0 0
0 0 0 0 0 0 0 0 0 0 0 0 0 0 0 0 0 0 0 0 0 0 0 0 0 0 0 0 0 0 0 0 0 0 0 0 0 0 0 0 0 0 0 0
0 0 0 0 0 0 0 0 0 0 0 0 0 0 0 0 0 0 0 0 0 0 0 0 0 0 0 0 0 0 0 0 0 0 0 0 0 0 0 0 0 0 0 0
0 0 0 0 0 0 0 0 0 0 0 0 0 0 0 0 0 0 0 0 0 0 0 0 0 0 0 0 0 0 0 0 0 -0 0 0 0 0 0 0 0 0 0 0
0 0 0 0 0 0 0 0 0 0 0 0 0 0 0 0 0 0 0 0 0 0 0 0 0 0 0 0 0 0 0 0 0 -0 0 0 0 0 0 0 0 0 0 0
0 0 0 0 0 0 0 0 0 0 0 0 0 0 0 0 0 0 0 0 0 0 0 0 0 0 0 0 0 0 0 0 0 0 -0 0 0 0 0 0 0 0 0 0
0 0 0 0 0 0 0 0 0 0 0 0 0 0 0 0 0 0 0 0 0 0 0 0 0 0 0 0 0 0 0 0 -0 0 0 0 0 0 0 0 0 0 0 0
0 0 0 0 0 0 0 0 0 0 0 0 0 0 0 0 0 0 0 0 0 0 0 0 0 0 0 0 0 0 0 0 0 0 0 0 0 0 0 0 0 0 0 0
0 0 0 0 0 0 0 0 0 0 0 0 0 0 0 0 0 0 0 0 0 0 0 0 0 0 0 0 0 0 0 0 0 0 0 0 0 0 0 0 0 0 0 0
0 0 0 0 0 0 0 0 0 0 0 0 0 0 0 0 0 0 0 0 0 0 0 0 0 0 0 0 0 0 0 0 0 0 0 0 0 0 0 0 0 0 0 0
0 0 0 0 0 0 0 0 0 0 0 0 0 0 0 0 0 0 0 0 0 0 0 0 0 0 0 0 0 0 0 0 0 0 0 0 0 0 0 0 0 0 0 0
0 0 0 0 0 0 0 0 0 0 0 0 0 0 0 0 0 0 0 0 0 0 0 0 0 0 0 0 0 0 0 0 0 0 0 0 0 0 0 0 0 0 0 0
0 0 0 0 0 0 0 0 0 0 0 0 0 0 -0 -0 0 0 0 0 0 0 0 0 0 0 0 0 0 0 0 0 0 0 0 0 0 0 0 0 0 0 0 0
0 0 0 0 0 0 0 0 0 0 0 -0 -0 -0 -0 -0 -0 0 0 0 0 0 0 0 0 0 0 0 0 0 0 0 0 0 0 0 0 0 0 0 0 0 0 0
0 0 0 0 0 0 0 0 0 0 0 0 -0 -0 0 0 0 0 0 0 0 0 0 0 0 0 0 0 0 0 0 0 0 0 0 0 0 0 0 0 0 0 0 0
0 0 0 0 0 0 0 0 0 0 0 0 -0 0 0 0 0 0 0 0 0 0 0 0 0 0 0 0 0 0 0 0 0 0 -0 0 0 0 0 0 0 0 0 0
0 0 0 0 0 0 0 0 0 0 0 0 0 0 0 0 0 0 0 0 0 0 0 0 0 0 0 0 0 0 0 0 0 -0 -0 -0 0 0 0 0 0 0 0 0
Wind_Speed_500mb
10 8 6 4 3 9 9 11 10 7 12 14 20 17 32 22 18 28 29 33 44 58 30 34 43 38 32 32 26 24 20 22 25 17 6 9 16 21 25 29 29 31 33 36
9 7 12 3 8 7 3 13 5 11 7 10 18 22 30 22 17 15 6 26 42 38 4 10 16 26 26 17 9 9 11 10 10 17 27 33 35 34 32 32 34 38 40 41
5 7 8 11 8 9 4 4 18 10 10 14 7 21 41 31 23 27 37 30 25 8 8 13 11 9 7 4 3 5 9 16 24 30 32 35 35 36 39 41 41 42 47 56
6 6 5 15 13 12 7 9 19 12 18 38 35 26 38 43 28 25 18 10 6 7 7 8 3 7 3 3 4 9 10 16 17 21 26 28 32 38 42 45 47 51 60 68
9 7 8 8 14 9 13 6 4 24 15 21 37 35 17 24 27 33 33 20 7 18 29 29 25 19 19 19 17 19 22 21 22 26 28 30 34 38 43 51 55 62 67 76
6 7 4 11 17 11 18 8 7 45 31 48 54 10 5 34 37 28 25 24 32 35 31 26 20 14 14 12 16 21 20 21 25 29 33 38 43 47 51 55 63 67 69 62
5 4 8 10 21 2 13 11 12 36 44 42 13 30 54 50 53 50 43 33 25 19 11 6 2 10 15 18 25 29 35 38 44 49 53 55 56 58 60 59 58 58 60 59
5 7 7 7 8 14 17 30 57 60 59 73 73 67 64 55 44 35 27 16 4 5 8 14 21 28 32 37 41 46 50 52 53 54 54 54 56 58 59 61 60 60 61 59
11 10 9 8 44 74 71 70 59 78 66 71 64 54 42 35 25 17 8 1 7 14 20 26 32 36 37 35 40 42 38 37 39 40 41 44 51 57 61 61 61 61 57 55
10 6 13 59 65 69 66 70 62 58 54 46 48 34 28 19 11 2 2 8 13 18 20 22 25 27 23 24 26 25 29 36 43 47 48 49 52 52 50 50 49 52 53 52
1 12 32 34 69 71 66 62 56 45 37 34 25 21 13 11 4 4 10 16 21 22 19 17 20 20 16 21 28 33 37 43 52 58 63 63 58 55 53 50 52 55 58 62
10 44 23 45 66 64 62 52 43 38 34 22 9 12 3 2 4 8 11 15 12 11 14 14 20 23 27 29 31 34 39 49 67 72 73 69 63 66 65 63 63 65 66 64
16 53 54 67 61 51 51 41 29 19 12 10 8 1 3 4 5 10 17 12 15 18 17 20 20 23 27 33 35 34 49 58 78 84 89 75 71 71 78 77 69 71 67 61
49 66 57 65 62 47 44 40 27 24 13 7 5 2 4 7 9 15 16 13 18 22 21 22 20 31 42 40 41 39 53 60 77 85 89 82 74 73 74 72 72 83 71 56
71 48 68 65 56 45 37 34 29 28 22 17 10 2 6 8 9 14 20 15 19 22 25 26 30 45 46 40 39 46 55 60 78 93 98 77 66 67 71 74 77 77 83 79
50 71 70 64 58 48 41 38 34 30 21 18 9 1 9 7 10 12 21 15 15 18 24 28 32 52 46 37 44 50 56 66 77 93 94 77 71 71 71 74 75 75 80 74
71 56 61 54 50 40 31 28 21 22 20 14 5 6 6 3 3 9 19 12 15 23 20 29 38 52 41 38 46 51 59 58 71 89 102 91 78 75 77 77 73 70 74 68
44 51 48 50 50 43 36 27 20 16 13 9 3 4 3 2 2 17 9 10 17 15 31 38 45 46 38 42 45 48 66 60 76 90 101 92 84 77 79 79 75 67 66 61
45 56 57 49 43 39 31 25 21 19 15 7 3 3 6 2 9 4 10 14 22 16 35 37 44 37 39 41 44 64 61 65 75 87 94 92 85 80 80 78 73 67 60 57
60 61 59 50 39 31 30 26 23 19 15 10 6 9 9 12 4 2 12 20 17 28 36 38 43 42 42 42 54 58 64 68 70 86 93 93 85 82 81 77 72 66 59 54
63 56 49 43 36 27 21 23 20 18 12 10 12 13 8 9 3 13 17 14 19 32 33 38 42 46 40 46 54 60 63 63 69 83 89 92 86 80 78 77 72 65 59 53
49 41 36 30 24 23 18 17 14 12 6 6 8 9 4 10 3 5 10 18 24 28 33 41 42 44 48 44 52 57 59 60 65 80 86 85 78 77 76 76 74 68 60 53
34 32 30 25 20 19 19 18 15 11 16 14 9 9 16 9 1 8 16 22 27 28 32 42 43 49 41 42 51 54 59 58 62 81 82 75 72 75 73 73 73 66 59 53
30 27 23 20 24 22 21 22 15 9 5 9 14 11 6 3 3 10 18 26 28 27 34 40 37 50 35 44 49 60 57 54 64 78 71 69 73 72 69 67 70 65 59 54
27 27 27 26 25 25 19 20 17 15 15 10 6 5 5 12 17 13 21 24 27 25 31 32 46 44 37 43 57 58 54 50 64 69 65 71 68 67 64 63 67 61 55 50
34 28 26 21 28 22 22 21 23 21 11 13 14 13 8 5 15 17 19 28 24 25 30 36 49 42 38 45 59 54 53 44 62 70 64 62 64 63 61 62 64 60 55 52
27 22 24 28 33 28 21 24 32 26 23 17 6 9 10 8 9 18 23 28 29 26 27 39 47 38 38 50 57 52 51 44 55 68 58 59 60 59 54 57 62 66 68 68
Wind_Direction_500mb
113 124 122 233 299 287 115 194 170 225 200 202 208 160 163 139 131 101 118 166 193 208 184 128 117 103 109 116 108 103 128 151 163 175 193 271 283 293 297 302 304 300 289 284
30 33 25 2 284 274 258 103 62 158 232 193 107 129 169 174 176 150 157 182 195 178 120 64 79 100 100 103 125 181 200 217 246 280 302 312 314 315 311 308 305 311 306 303
238 17 7 9 243 212 190 199 154 168 202 136 118 160 173 167 161 171 170 172 161 90 91 55 47 63 66 37 304 299 305 306 301 303 304 305 304 300 299 297 295 297 298 300
132 34 97 239 285 128 111 78 113 104 146 170 172 174 172 177 178 177 155 218 178 191 180 154 206 251 345 176 271 271 275 271 280 286 290 289 287 288 288 287 286 288 294 299
125 172 276 348 333 143 132 25 128 114 117 177 144 141 171 194 206 195 193 182 195 210 195 174 167 174 189 193 210 229 236 248 261 267 270 272 272 274 277 281 286 292 296 301
112 140 133 243 300 117 120 24 44 130 138 129 137 112 216 180 184 161 158 181 154 147 148 157 137 157 201 216 238 251 263 278 283 282 282 282 284 286 286 286 289 292 295 295
90 138 273 270 293 32 87 221 66 150 139 136 107 112 126 140 133 136 134 130 131 143 154 121 270 279 278 282 286 300 300 298 295 293 292 290 292 293 294 293 292 292 292 293
84 99 259 267 356 109 157 110 108 106 111 104 112 117 122 125 124 124 121 117 102 293 308 306 308 309 311 312 309 305 306 304 301 296 293 292 291 292 293 292 295 297 298 295
158 206 223 74 125 135 131 124 115 120 120 120 115 113 115 113 114 109 112 71 315 310 309 306 307 308 311 313 313 316 318 319 316 311 309 304 299 298 300 297 298 300 299 297
71 310 118 122 126 131 130 123 124 125 125 126 117 118 115 115 114 120 312 308 315 314 314 318 321 326 328 329 327 331 336 340 340 337 332 327 319 313 313 312 311 308 308 303
74 83 104 124 133 133 127 130 128 128 128 124 126 119 120 116 99 2 333 321 320 324 332 339 343 336 343 353 359 1 0 0 359 353 347 339 330 319 312 302 302 304 302 296
206 183 151 156 140 142 136 134 135 131 118 107 86 106 102 74 336 329 332 337 343 358 358 357 350 360 16 16 9 9 10 3 357 352 346 340 325 314 312 306 303 301 303 301
171 178 158 150 145 150 136 137 138 134 119 126 118 93 324 335 340 347 343 353 11 12 8 3 13 13 11 0 1 357 352 351 352 349 345 335 326 320 316 312 307 304 305 304
152 145 132 150 144 145 139 137 138 130 135 153 174 163 359 337 327 342 -0 19 21 12 15 8 19 11 359 356 354 345 346 345 344 344 341 333 325 321 317 313 305 304 304 299
151 166 154 141 138 134 138 143 146 150 159 160 178 226 332 334 351 8 10 19 34 27 18 13 4 357 355 351 346 343 338 334 338 340 338 332 325 320 314 311 308 305 301 299
146 141 142 143 140 142 141 152 150 151 167 169 178 306 334 340 352 4 358 15 34 18 0 346 351 351 346 341 343 339 333 337 348 349 346 342 336 328 323 317 308 301 300 297
143 140 145 143 148 151 161 165 169 171 171 180 209 326 342 44 21 350 346 5 11 348 339 341 344 343 334 337 334 329 331 338 342 347 349 346 339 331 327 321 315 303 300 294
190 180 186 185 167 167 166 166 173 182 192 193 207 354 88 129 356 344 27 54 357 333 351 350 340 337 338 341 329 323 331 329 335 337 342 344 340 334 329 327 323 315 304 298
184 173 170 171 175 172 166 166 165 169 170 184 166 34 148 175 325 80 37 358 339 326 349 346 345 347 342 333 327 331 338 337 337 338 342 342 339 337 335 333 329 324 316 307
165 164 162 160 166 171 157 156 158 155 157 179 209 182 207 280 166 68 328 327 324 345 347 348 347 347 339 332 333 339 343 337 333 336 338 341 340 338 337 336 333 329 323 315
149 152 152 154 155 156 161 162 164 167 182 215 241 252 268 171 184 317 318 317 338 340 339 343 337 344 341 334 340 345 341 338 337 338 337 339 341 341 340 339 336 333 326 318
154 155 155 153 150 143 143 150 161 129 86 232 254 246 256 183 194 334 310 343 342 332 337 340 338 341 344 341 341 340 338 340 339 340 339 341 343 341 341 342 340 335 329 324
155 157 153 153 155 148 148 137 127 103 76 79 94 143 136 144 180 268 332 343 323 329 331 343 340 339 343 341 340 338 340 339 339 340 341 344 345 344 342 341 340 337 331 326
161 160 150 144 147 151 163 182 206 222 165 111 111 119 134 177 320 295 326 343 331 315 328 340 334 343 342 343 342 342 344 342 344 342 345 347 346 345 345 342 342 340 335 330
169 166 170 171 176 184 167 177 194 207 232 237 218 167 20 346 305 327 333 332 329 319 332 339 342 344 347 344 344 346 347 351 351 350 350 349 350 350 350 349 348 348 344 341
178 184 189 192 174 186 187 196 218 225 231 249 240 237 240 318 324 330 339 336 325 324 333 337 346 351 351 344 348 348 350 351 358 2 359 0 -0 1 0 1 4 8 10 11
178 181 189 197 199 206 219 254 236 233 209 200 14 242 217 269 326 325 333 335 321 316 333 343 351 354 346 347 353 353 354 351 358 4 6 10 11 13 15 19 28 33 34 35
Wind_Speed_850mb
10 8 6 4 3 9 9 11 10 7 12 14 20 17 32 22 18 28 29 33 44 58 30 34 43 38 32 32 26 24 20 22 25 17 6 9 16 21 25 29 29 31 33 36
9 7 12 3 8 7 3 13 5 11 7 10 18 22 30 22 17 15 6 26 42 38 4 10 16 26 26 17 9 9 11 10 10 17 27 33 35 34 32 32 34 38 40 41
5 7 8 11 8 9 4 4 18 10 10 14 7 21 41 31 23 27 37 30 25 8 8 13 11 9 7 4 3 5 9 16 24 30 32 35 35 36 39 41 41 42 47 56
6 6 5 15 13 12 7 9 19 12 18 38 35 26 38 43 28 25 18 10 6 7 7 8 3 7 3 3 4 9 10 16 17 21 26 28 32 38 42 45 47 51 60 68
9 7 8 8 14 9 13 6 4 24 15 21 37 35 17 24 27 33 33 20 7 18 29 29 25 19 19 19 17 19 22 21 22 26 28 30 34 38 43 51 55 62 67 76
6 7 4 11 17 11 18 8 7 45 31 48 54 10 5 34 37 28 25 24 32 35 31 26 20 14 14 12 16 21 20 21 25 29 33 38 43 47 51 55 63 67 69 62
5 4 8 10 21 2 13 11 12 36 44 42 13 30 54 50 53 50 43 33 25 19 11 6 2 10 15 18 25 29 35 38 44 49 53 55 56 58 60 59 58 58 60 59
5 7 7 7 8 14 17 30 57 60 59 73 73 67 64 55 44 35 27 16 4 5 8 14 21 28 32 37 41 46 50 52 53 54 54 54 56 58 59 61 60 60 61 59
11 10 9 8 44 74 71 70 59 78 66 71 64 54 42 35 25 17 8 1 7 14 20 26 32 36 37 35 40 42 38 37 39 40 41 44 51 57 61 61 61 61 57 55
10 6 13 59 65 69 66 70 62 58 54 46 48 34 28 19 11 2 2 8 13 18 20 22 25 27 23 24 26 25 29 36 43 47 48 49 52 52 50 50 49 52 53 52
1 12 32 34 69 71 66 62 56 45 37 34 25 21 13 11 4 4 10 16 21 22 19 17 20 20 16 21 28 33 37 43 52 58 63 63 58 55 53 50 52 55 58 62
10 44 23 45 66 64 62 52 43 38 34 22 9 12 3 2 4 8 11 15 12 11 14 14 20 23 27 29 31 34 39 49 67 72 73 69 63 66 65 63 63 65 66 64
16 53 54 67 61 51 51 41 29 19 12 10 8 1 3 4 5 10 17 12 15 18 17 20 20 23 27 33 35 34 49 58 78 84 89 75 71 71 78 77 69 71 67 61
49 66 57 65 62 47 44 40 27 24 13 7 5 2 4 7 9 15 16 13 18 22 21 22 20 31 42 40 41 39 53 60 77 85 89 82 74 73 74 72 72 83 71 56
71 48 68 65 56 45 37 34 29 28 22 17 10 2 6 8 9 14 20 15 19 22 25 26 30 45 46 40 39 46 55 60 78 93 98 77 66 67 71 74 77 77 83 79
50 71 70 64 58 48 41 38 34 30 21 18 9 1 9 7 10 12 21 15 15 18 24 28 32 52 46 37 44 50 56 66 77 93 94 77 71 71 71 74 75 75 80 74
71 56 61 54 50 40 31 28 21 22 20 14 5 6 6 3 3 9 19 12 15 23 20 29 38 52 41 38 46 51 59 58 71 89 102 91 78 75 77 77 73 70 74 68
44 51 48 50 50 43 36 27 20 16 13 9 3 4 3 2 2 17 9 10 17 15 31 38 45 46 38 42 45 48 66 60 76 90 101 92 84 77 79 79 75 67 66 61
45 56 57 49 43 39 31 25 21 19 15 7 3 3 6 2 9 4 10 14 22 16 35 37 44 37 39 41 44 64 61 65 75 87 94 92 85 80 80 78 73 67 60 57
60 61 59 50 39 31 30 26 23 19 15 10 6 9 9 12 4 2 12 20 17 28 36 38 43 42 42 42 54 58 64 68 70 86 93 93 85 82 81 77 72 66 59 54
63 56 49 43 36 27 21 23 20 18 12 10 12 13 8 9 3 13 17 14 19 32 33 38 42 46 40 46 54 60 63 63 69 83 89 92 86 80 78 77 72 65 59 53
49 41 36 30 24 23 18 17 14 12 6 6 8 9 4 10 3 5 10 18 24 28 33 41 42 44 48 44 52 57 59 60 65 80 86 85 78 77 76 76 74 68 60 53
34 32 30 25 20 19 19 18 15 11 16 14 9 9 16 9 1 8 16 22 27 28 32 42 43 49 41 42 51 54 59 58 62 81 82 75 72 75 73 73 73 66 59 53
30 27 23 20 24 22 21 22 15 9 5 9 14 11 6 3 3 10 18 26 28 27 34 40 37 50 35 44 49 60 57 54 64 78 71 69 73 72 69 67 70 65 59 54
27 27 27 26 25 25 19 20 17 15 15 10 6 5 5 12 17 13 21 24 27 25 31 32 46 44 37 43 57 58 54 50 64 69 65 71 68 67 64 63 67 61 55 50
34 28 26 21 28 22 22 21 23 21 11 13 14 13 8 5 15 17 19 28 24 25 30 36 49 42 38 45 59 54 53 44 62 70 64 62 64 63 61 62 64 60 55 52
27 22 24 28 33 28 21 24 32 26 23 17 6 9 10 8 9 18 23 28 29 26 27 39 47 38 38 50 57 52 51 44 55 68 58 59 60 59 54 57 62 66 68 68
Wind_Direction_850mb
113 124 122 233 299 287 115 194 170 225 200 202 208 160 163 139 131 101 118 166 193 208 184 128 117 103 109 116 108 103 128 151 163 175 193 271 283 293 297 302 304 300 289 284
30 33 25 2 284 274 258 103 62 158 232 193 107 129 169 174 176 150 157 182 195 178 120 64 79 100 100 103 125 181 200 217 246 280 302 312 314 315 311 308 305 311 306 303
238 17 7 9 243 212 190 199 154 168 202 136 118 160 173 167 161 171 170 172 161 90 91 55 47 63 66 37 304 299 305 306 301 303 304 305 304 300 299 297 295 297 298 300
132 34 97 239 285 128 111 78 113 104 146 170 172 174 172 177 178 177 155 218 178 191 180 154 206 251 345 176 271 271 275 271 280 286 290 289 287 288 288 287 286 288 294 299
125 172 276 348 333 143 132 25 128 114 117 177 144 141 171 194 206 195 193 182 195 210 195 174 167 174 189 193 210 229 236 248 261 267 270 272 272 274 277 281 286 292 296 301
112 140 133 243 300 117 120 24 44 130 138 129 137 112 216 180 184 161 158 181 154 147 148 157 137 157 201 216 238 251 263 278 283 282 282 282 284 286 286 286 289 292 295 295
90 138 273 270 293 32 87 221 66 150 139 136 107 112 126 140 133 136 134 130 131 143 154 121 270 279 278 282 286 300 300 298 295 293 292 290 292 293 294 293 292 292 292 293
84 99 259 267 356 109 157 110 108 106 111 104 112 117 122 125 124 124 121 117 102 293 308 306 308 309 311 312 309 305 306 304 301 296 293 292 291 292 293 292 295 297 298 295
158 206 223 74 125 135 131 124 115 120 120 120 115 113 115 113 114 109 112 71 315 310 309 306 307 308 311 313 313 316 318 319 316 311 309 304 299 298 300 297 298 300 299 297
71 310 118 122 126 131 130 123 124 125 125 126 117 118 115 115 114 120 312 308 315 314 314 318 321 326 328 329 327 331 336 340 340 337 332 327 319 313 313 312 311 308 308 303
74 83 104 124 133 133 127 130 128 128 128 124 126 119 120 116 99 2 333 321 320 324 332 339 343 336 343 353 359 1 0 0 359 353 347 339 330 319 312 302 302 304 302 296
206 183 151 156 140 142 136 134 135 131 118 107 86 106 102 74 336 329 332 337 343 358 358 357 350 360 16 16 9 9 10 3 357 352 346 340 325 314 312 306 303 301 303 301
171 178 158 150 145 150 136 137 138 134 119 126 118 93 324 335 340 347 343 353 11 12 8 3 13 13 11 0 1 357 352 351 352 349 345 335 326 320 316 312 307 304 305 304
152 145 132 150 144 145 139 137 138 130 135 153 174 163 359 337 327 342 -0 19 21 12 15 8 19 11 359 356 354 345 346 345 344 344 341 333 325 321 317 313 305 304 304 299
151 166 154 141 138 134 138 143 146 150 159 160 178 226 332 334 351 8 10 19 34 27 18 13 4 357 355 351 346 343 338 334 338 340 338 332 325 320 314 311 308 305 301 299
146 141 142 143 140 142 141 152 150 151 167 169 178 306 334 340 352 4 358 15 34 18 0 346 351 351 346 341 343 339 333 337 348 349 346 342 336 328 323 317 308 301 300 297
143 140 145 143 148 151 161 165 169 171 171 180 209 326 342 44 21 350 346 5 11 348 339 341 344 343 334 337 334 329 331 338 342 347 349 346 339 331 327 321 315 303 300 294
190 180 186 185 167 167 166 166 173 182 192 193 207 354 88 129 356 344 27 54 357 333 351 350 340 337 338 341 329 323 331 329 335 337 342 344 340 334 329 327 323 315 304 298
184 173 170 171 175 172 166 166 165 169 170 184 166 34 148 175 325 80 37 358 339 326 349 346 345 347 342 333 327 331 338 337 337 338 342 342 339 337 335 333 329 324 316 307
165 164 162 160 166 171 157 156 158 155 157 179 209 182 207 280 166 68 328 327 324 345 347 348 347 347 339 332 333 339 343 337 333 336 338 341 340 338 337 336 333 329 323 315
149 152 152 154 155 156 161 162 164 167 182 215 241 252 268 171 184 317 318 317 338 340 339 343 337 344 341 334 340 345 341 338 337 338 337 339 341 341 340 339 336 333 326 318
154 155 155 153 150 143 143 150 161 129 86 232 254 246 256 183 194 334 310 343 342 332 337 340 338 341 344 341 341 340 338 340 339 340 339 341 343 341 341 342 340 335 329 324
155 157 153 153 155 148 148 137 127 103 76 79 94 143 136 144 180 268 332 343 323 329 331 343 340 339 343 341 340 338 340 339 339 340 341 344 345 344 342 341 340 337 331 326
161 160 150 144 147 151 163 182 206 222 165 111 111 119 134 177 320 295 326 343 331 315 328 340 334 343 342 343 342 342 344 342 344 342 345 347 346 345 345 342 342 340 335 330
169 166 170 171 176 184 167 177 194 207 232 237 218 167 20 346 305 327 333 332 329 319 332 339 342 344 347 344 344 346 347 351 351 350 350 349 350 350 350 349 348 348 344 341
178 184 189 192 174 186 187 196 218 225 231 249 240 237 240 318 324 330 339 336 325 324 333 337 346 351 351 344 348 348 350 351 358 2 359 0 -0 1 0 1 4 8 10 11
178 181 189 197 199 206 219 254 236 233 209 200 14 242 217 269 326 325 333 335 321 316 333 343 351 354 346 347 353 353 354 351 358 4 6 10 11 13 15 19 28 33 34 35